Year,Month,Day,Hour,Minute,Value (Times are PST for temperature in C)
2015,08,22,00,00,11.80
2015,08,22,00,01,11.80
2015,08,22,00,02,11.80
2015,08,22,00,03,11.80
2015,08,22,00,04,11.80
2015,08,22,00,05,11.80
2015,08,22,00,06,11.80
2015,08,22,00,07,11.80
2015,08,22,00,08,11.80
2015,08,22,00,09,11.80
2015,08,22,00,10,11.80
2015,08,22,00,11,11.70
2015,08,22,00,12,11.70
2015,08,22,00,13,11.70
2015,08,22,00,14,11.70
2015,08,22,00,15,11.70
2015,08,22,00,16,11.70
2015,08,22,00,17,11.70
2015,08,22,00,18,11.60
2015,08,22,00,19,11.60
2015,08,22,00,20,11.60
2015,08,22,00,21,11.60
2015,08,22,00,22,11.60
2015,08,22,00,23,11.60
2015,08,22,00,24,11.50
2015,08,22,00,25,11.50
2015,08,22,00,26,11.40
2015,08,22,00,27,11.40
2015,08,22,00,28,11.40
2015,08,22,00,29,11.40
2015,08,22,00,30,11.40
2015,08,22,00,31,11.40
2015,08,22,00,32,11.40
2015,08,22,00,33,11.40
2015,08,22,00,34,11.40
2015,08,22,00,35,11.40
2015,08,22,00,36,11.30
2015,08,22,00,37,11.30
2015,08,22,00,38,11.30
2015,08,22,00,39,11.30
2015,08,22,00,40,11.30
2015,08,22,00,41,11.30
2015,08,22,00,42,11.30
2015,08,22,00,43,11.20
2015,08,22,00,44,11.20
2015,08,22,00,45,11.20
2015,08,22,00,46,11.20
2015,08,22,00,47,11.20
2015,08,22,00,48,11.20
2015,08,22,00,49,11.20
2015,08,22,00,50,11.20
2015,08,22,00,51,11.20
2015,08,22,00,52,11.10
2015,08,22,00,53,11.10
2015,08,22,00,54,11.10
2015,08,22,00,55,11.10
2015,08,22,00,56,11.10
2015,08,22,00,57,11.10
2015,08,22,00,58,11.10
2015,08,22,00,59,11.00
2015,08,22,01,00,11.00
2015,08,22,01,01,10.90
2015,08,22,01,02,10.90
2015,08,22,01,03,10.90
2015,08,22,01,04,10.90
2015,08,22,01,05,10.90
2015,08,22,01,06,10.90
2015,08,22,01,07,10.90
2015,08,22,01,08,10.80
2015,08,22,01,09,10.80
2015,08,22,01,10,10.80
2015,08,22,01,11,10.80
2015,08,22,01,12,10.80
2015,08,22,01,13,10.80
2015,08,22,01,14,10.80
2015,08,22,01,15,10.80
2015,08,22,01,16,10.80
2015,08,22,01,17,10.80
2015,08,22,01,18,10.80
2015,08,22,01,19,10.80
2015,08,22,01,20,10.80
2015,08,22,01,21,10.80
2015,08,22,01,22,10.80
2015,08,22,01,23,10.70
2015,08,22,01,24,10.70
2015,08,22,01,25,10.70
2015,08,22,01,26,10.70
2015,08,22,01,27,10.70
2015,08,22,01,28,10.70
2015,08,22,01,29,10.70
2015,08,22,01,30,10.70
2015,08,22,01,31,10.70
2015,08,22,01,32,10.70
2015,08,22,01,33,10.70
2015,08,22,01,34,10.60
2015,08,22,01,35,10.60
2015,08,22,01,36,10.60
2015,08,22,01,37,10.60
2015,08,22,01,38,10.60
2015,08,22,01,39,10.60
2015,08,22,01,40,10.60
2015,08,22,01,41,10.60
2015,08,22,01,42,10.50
2015,08,22,01,43,10.50
2015,08,22,01,44,10.50
2015,08,22,01,45,10.50
2015,08,22,01,46,10.50
2015,08,22,01,47,10.50
2015,08,22,01,48,10.50
2015,08,22,01,49,10.50
2015,08,22,01,50,10.50
2015,08,22,01,51,10.50
2015,08,22,01,52,10.50
2015,08,22,01,53,10.50
2015,08,22,01,54,10.50
2015,08,22,01,55,10.50
2015,08,22,01,56,10.50
2015,08,22,01,57,10.50
2015,08,22,01,58,10.50
2015,08,22,01,59,10.50
2015,08,22,02,00,10.50
2015,08,22,02,01,10.50
2015,08,22,02,02,10.50
2015,08,22,02,03,10.50
2015,08,22,02,04,10.50
2015,08,22,02,05,10.50
2015,08,22,02,06,10.40
2015,08,22,02,07,10.40
2015,08,22,02,08,10.40
2015,08,22,02,09,10.40
2015,08,22,02,10,10.40
2015,08,22,02,11,10.40
2015,08,22,02,12,10.40
2015,08,22,02,13,10.40
2015,08,22,02,14,10.40
2015,08,22,02,15,10.40
2015,08,22,02,16,10.40
2015,08,22,02,17,10.40
2015,08,22,02,18,10.40
2015,08,22,02,19,10.40
2015,08,22,02,20,10.30
2015,08,22,02,21,10.30
2015,08,22,02,22,10.30
2015,08,22,02,23,10.30
2015,08,22,02,24,10.30
2015,08,22,02,25,10.30
2015,08,22,02,26,10.30
2015,08,22,02,27,10.30
2015,08,22,02,28,10.30
2015,08,22,02,29,10.30
2015,08,22,02,30,10.30
2015,08,22,02,31,10.30
2015,08,22,02,32,10.30
2015,08,22,02,33,10.30
2015,08,22,02,34,10.30
2015,08,22,02,35,10.30
2015,08,22,02,36,10.30
2015,08,22,02,37,10.30
2015,08,22,02,38,10.30
2015,08,22,02,39,10.30
2015,08,22,02,40,10.30
2015,08,22,02,41,10.30
2015,08,22,02,42,10.30
2015,08,22,02,43,10.30
2015,08,22,02,44,10.20
2015,08,22,02,45,10.20
2015,08,22,02,46,10.20
2015,08,22,02,47,10.20
2015,08,22,02,48,10.20
2015,08,22,02,49,10.20
2015,08,22,02,50,10.20
2015,08,22,02,51,10.20
2015,08,22,02,52,10.20
2015,08,22,02,53,10.20
2015,08,22,02,54,10.20
2015,08,22,02,55,10.20
2015,08,22,02,56,10.20
2015,08,22,02,57,10.10
2015,08,22,02,58,10.10
2015,08,22,02,59,10.10
2015,08,22,03,00,10.10
2015,08,22,03,01,10.10
2015,08,22,03,02,10.10
2015,08,22,03,03,10.10
2015,08,22,03,04,10.10
2015,08,22,03,05,10.10
2015,08,22,03,06,10.10
2015,08,22,03,07,10.10
2015,08,22,03,08,10.10
2015,08,22,03,09,10.10
2015,08,22,03,10,10.00
2015,08,22,03,11,10.00
2015,08,22,03,12,10.00
2015,08,22,03,13,10.00
2015,08,22,03,14,9.90
2015,08,22,03,15,9.90
2015,08,22,03,16,9.90
2015,08,22,03,17,9.90
2015,08,22,03,18,9.90
2015,08,22,03,19,9.90
2015,08,22,03,20,9.90
2015,08,22,03,21,9.90
2015,08,22,03,22,9.90
2015,08,22,03,23,9.90
2015,08,22,03,24,9.90
2015,08,22,03,25,9.90
2015,08,22,03,26,10.00
2015,08,22,03,27,10.00
2015,08,22,03,28,10.00
2015,08,22,03,29,10.00
2015,08,22,03,30,10.00
2015,08,22,03,31,9.90
2015,08,22,03,32,9.90
2015,08,22,03,33,9.90
2015,08,22,03,34,9.90
2015,08,22,03,35,9.90
2015,08,22,03,36,9.90
2015,08,22,03,37,9.90
2015,08,22,03,38,9.90
2015,08,22,03,39,9.90
2015,08,22,03,40,9.90
2015,08,22,03,41,9.90
2015,08,22,03,42,9.90
2015,08,22,03,43,9.80
2015,08,22,03,44,9.80
2015,08,22,03,45,9.80
2015,08,22,03,46,9.80
2015,08,22,03,47,9.80
2015,08,22,03,48,9.80
2015,08,22,03,49,9.80
2015,08,22,03,50,9.80
2015,08,22,03,51,9.80
2015,08,22,03,52,9.80
2015,08,22,03,53,9.80
2015,08,22,03,54,9.80
2015,08,22,03,55,9.80
2015,08,22,03,56,9.80
2015,08,22,03,57,9.80
2015,08,22,03,58,9.80
2015,08,22,03,59,9.80
2015,08,22,04,00,9.80
2015,08,22,04,01,9.80
2015,08,22,04,02,9.80
2015,08,22,04,03,9.80
2015,08,22,04,04,9.80
2015,08,22,04,05,9.80
2015,08,22,04,06,9.80
2015,08,22,04,07,9.80
2015,08,22,04,08,9.80
2015,08,22,04,09,9.80
2015,08,22,04,10,9.80
2015,08,22,04,11,9.80
2015,08,22,04,12,9.80
2015,08,22,04,13,9.80
2015,08,22,04,14,9.80
2015,08,22,04,15,9.80
2015,08,22,04,16,9.80
2015,08,22,04,17,9.80
2015,08,22,04,18,9.80
2015,08,22,04,19,9.80
2015,08,22,04,20,9.80
2015,08,22,04,21,9.80
2015,08,22,04,22,9.80
2015,08,22,04,23,9.80
2015,08,22,04,24,9.80
2015,08,22,04,25,9.80
2015,08,22,04,26,9.80
2015,08,22,04,27,9.80
2015,08,22,04,28,9.80
2015,08,22,04,29,9.80
2015,08,22,04,30,9.80
2015,08,22,04,31,9.70
2015,08,22,04,32,9.70
2015,08,22,04,33,9.70
2015,08,22,04,34,9.60
2015,08,22,04,35,9.60
2015,08,22,04,36,9.60
2015,08,22,04,37,9.60
2015,08,22,04,38,9.50
2015,08,22,04,39,9.50
2015,08,22,04,40,9.40
2015,08,22,04,41,9.40
2015,08,22,04,42,9.40
2015,08,22,04,43,9.40
2015,08,22,04,44,9.40
2015,08,22,04,45,9.40
2015,08,22,04,46,9.40
2015,08,22,04,47,9.40
2015,08,22,04,48,9.40
2015,08,22,04,49,9.40
2015,08,22,04,50,9.40
2015,08,22,04,51,9.40
2015,08,22,04,52,9.40
2015,08,22,04,53,9.40
2015,08,22,04,54,9.40
2015,08,22,04,55,9.40
2015,08,22,04,56,9.40
2015,08,22,04,57,9.40
2015,08,22,04,58,9.40
2015,08,22,04,59,9.40
2015,08,22,05,00,9.40
2015,08,22,05,01,9.40
2015,08,22,05,02,9.50
2015,08,22,05,03,9.50
2015,08,22,05,04,9.50
2015,08,22,05,05,9.50
2015,08,22,05,06,9.50
2015,08,22,05,07,9.50
2015,08,22,05,08,9.50
2015,08,22,05,09,9.50
2015,08,22,05,10,9.50
2015,08,22,05,11,9.40
2015,08,22,05,12,9.40
2015,08,22,05,13,9.40
2015,08,22,05,14,9.40
2015,08,22,05,15,9.40
2015,08,22,05,16,9.40
2015,08,22,05,17,9.40
2015,08,22,05,18,9.40
2015,08,22,05,19,9.40
2015,08,22,05,20,9.40
2015,08,22,05,21,9.40
2015,08,22,05,22,9.40
2015,08,22,05,23,9.40
2015,08,22,05,24,9.40
2015,08,22,05,25,9.40
2015,08,22,05,26,9.40
2015,08,22,05,27,9.40
2015,08,22,05,28,9.40
2015,08,22,05,29,9.40
2015,08,22,05,30,9.40
2015,08,22,05,31,9.40
2015,08,22,05,32,9.40
2015,08,22,05,33,9.30
2015,08,22,05,34,9.30
2015,08,22,05,35,9.30
2015,08,22,05,36,9.30
2015,08,22,05,37,9.30
2015,08,22,05,38,9.30
2015,08,22,05,39,9.30
2015,08,22,05,40,9.30
2015,08,22,05,41,9.30
2015,08,22,05,42,9.30
2015,08,22,05,43,9.30
2015,08,22,05,44,9.40
2015,08,22,05,45,9.40
2015,08,22,05,46,9.40
2015,08,22,05,47,9.40
2015,08,22,05,48,9.40
2015,08,22,05,49,9.30
2015,08,22,05,50,9.30
2015,08,22,05,51,9.30
2015,08,22,05,52,9.30
2015,08,22,05,53,9.30
2015,08,22,05,54,9.30
2015,08,22,05,55,9.30
2015,08,22,05,56,9.20
2015,08,22,05,57,9.20
2015,08,22,05,58,9.20
2015,08,22,05,59,9.20
2015,08,22,06,00,9.20
2015,08,22,06,01,9.20
2015,08,22,06,02,9.20
2015,08,22,06,03,9.20
2015,08,22,06,04,9.20
2015,08,22,06,05,9.20
2015,08,22,06,06,9.10
2015,08,22,06,07,9.10
2015,08,22,06,08,9.10
2015,08,22,06,09,9.10
2015,08,22,06,10,9.10
2015,08,22,06,11,9.10
2015,08,22,06,12,9.10
2015,08,22,06,13,9.10
2015,08,22,06,14,9.10
2015,08,22,06,15,9.10
2015,08,22,06,16,9.10
2015,08,22,06,17,9.10
2015,08,22,06,18,9.10
2015,08,22,06,19,9.10
2015,08,22,06,20,9.10
2015,08,22,06,21,9.10
2015,08,22,06,22,9.10
2015,08,22,06,23,9.10
2015,08,22,06,24,9.20
2015,08,22,06,25,9.20
2015,08,22,06,26,9.20
2015,08,22,06,27,9.20
2015,08,22,06,28,9.20
2015,08,22,06,29,9.20
2015,08,22,06,30,9.20
2015,08,22,06,31,9.20
2015,08,22,06,32,9.20
2015,08,22,06,33,9.20
2015,08,22,06,34,9.20
2015,08,22,06,35,9.20
2015,08,22,06,36,9.20
2015,08,22,06,37,9.20
2015,08,22,06,38,9.20
2015,08,22,06,39,9.20
2015,08,22,06,40,9.20
2015,08,22,06,41,9.20
2015,08,22,06,42,9.20
2015,08,22,06,43,9.20
2015,08,22,06,44,9.20
2015,08,22,06,45,9.20
2015,08,22,06,46,9.20
2015,08,22,06,47,9.20
2015,08,22,06,48,9.20
2015,08,22,06,49,9.20
2015,08,22,06,50,9.30
2015,08,22,06,51,9.30
2015,08,22,06,52,9.30
2015,08,22,06,53,9.30
2015,08,22,06,54,9.30
2015,08,22,06,55,9.30
2015,08,22,06,56,9.30
2015,08,22,06,57,9.30
2015,08,22,06,58,9.30
2015,08,22,06,59,9.30
2015,08,22,07,00,9.30
2015,08,22,07,01,9.30
2015,08,22,07,02,9.30
2015,08,22,07,03,9.40
2015,08,22,07,04,9.40
2015,08,22,07,05,9.40
2015,08,22,07,06,9.40
2015,08,22,07,07,9.40
2015,08,22,07,08,9.40
2015,08,22,07,09,9.50
2015,08,22,07,10,9.50
2015,08,22,07,11,9.50
2015,08,22,07,12,9.60
2015,08,22,07,13,9.60
2015,08,22,07,14,9.60
2015,08,22,07,15,9.60
2015,08,22,07,16,9.60
2015,08,22,07,17,9.70
2015,08,22,07,18,9.70
2015,08,22,07,19,9.70
2015,08,22,07,20,9.70
2015,08,22,07,21,9.80
2015,08,22,07,22,9.80
2015,08,22,07,23,9.80
2015,08,22,07,24,9.90
2015,08,22,07,25,9.90
2015,08,22,07,26,9.90
2015,08,22,07,27,9.90
2015,08,22,07,28,10.00
2015,08,22,07,29,10.10
2015,08,22,07,30,10.10
2015,08,22,07,31,10.10
2015,08,22,07,32,10.20
2015,08,22,07,33,10.20
2015,08,22,07,34,10.20
2015,08,22,07,35,10.30
2015,08,22,07,36,10.40
2015,08,22,07,37,10.40
2015,08,22,07,38,10.50
2015,08,22,07,39,10.60
2015,08,22,07,40,10.60
2015,08,22,07,41,10.70
2015,08,22,07,42,10.80
2015,08,22,07,43,10.80
2015,08,22,07,44,10.90
2015,08,22,07,45,11.00
2015,08,22,07,46,11.10
2015,08,22,07,47,11.20
2015,08,22,07,48,11.20
2015,08,22,07,49,11.30
2015,08,22,07,50,11.40
2015,08,22,07,51,11.50
2015,08,22,07,52,11.60
2015,08,22,07,53,11.70
2015,08,22,07,54,11.80
2015,08,22,07,55,11.80
2015,08,22,07,56,11.90
2015,08,22,07,57,12.00
2015,08,22,07,58,12.10
2015,08,22,07,59,12.20
2015,08,22,08,00,12.20
2015,08,22,08,01,12.30
2015,08,22,08,02,12.40
2015,08,22,08,03,12.50
2015,08,22,08,04,12.60
2015,08,22,08,05,12.60
2015,08,22,08,06,12.70
2015,08,22,08,07,12.80
2015,08,22,08,08,12.90
2015,08,22,08,09,12.90
2015,08,22,08,10,13.00
2015,08,22,08,11,13.10
2015,08,22,08,12,13.20
2015,08,22,08,13,13.20
2015,08,22,08,14,13.30
2015,08,22,08,15,13.30
2015,08,22,08,16,13.40
2015,08,22,08,17,13.50
2015,08,22,08,18,13.60
2015,08,22,08,19,13.70
2015,08,22,08,20,13.70
2015,08,22,08,21,13.80
2015,08,22,08,22,13.80
2015,08,22,08,23,13.90
2015,08,22,08,24,13.90
2015,08,22,08,25,14.00
2015,08,22,08,26,14.00
2015,08,22,08,27,14.10
2015,08,22,08,28,14.20
2015,08,22,08,29,14.30
2015,08,22,08,30,14.40
2015,08,22,08,31,14.50
2015,08,22,08,32,14.70
2015,08,22,08,33,14.80
2015,08,22,08,34,14.90
2015,08,22,08,35,15.10
2015,08,22,08,36,15.20
2015,08,22,08,37,15.50
2015,08,22,08,38,15.70
2015,08,22,08,39,16.00
2015,08,22,08,40,16.30
2015,08,22,08,41,16.50
2015,08,22,08,42,16.70
2015,08,22,08,43,17.00
2015,08,22,08,44,17.10
2015,08,22,08,45,17.30
2015,08,22,08,46,17.50
2015,08,22,08,47,17.60
2015,08,22,08,48,17.70
2015,08,22,08,49,17.80
2015,08,22,08,50,17.80
2015,08,22,08,51,17.90
2015,08,22,08,52,17.90
2015,08,22,08,53,17.90
2015,08,22,08,54,18.00
2015,08,22,08,55,18.00
2015,08,22,08,56,18.10
2015,08,22,08,57,18.10
2015,08,22,08,58,18.20
2015,08,22,08,59,18.30
2015,08,22,09,00,18.30
2015,08,22,09,01,18.30
2015,08,22,09,02,18.40
2015,08,22,09,03,18.50
2015,08,22,09,04,18.60
2015,08,22,09,05,18.60
2015,08,22,09,06,18.60
2015,08,22,09,07,18.70
2015,08,22,09,08,18.80
2015,08,22,09,09,18.80
2015,08,22,09,10,18.90
2015,08,22,09,11,19.00
2015,08,22,09,12,19.00
2015,08,22,09,13,19.10
2015,08,22,09,14,19.20
2015,08,22,09,15,19.30
2015,08,22,09,16,19.30
2015,08,22,09,17,19.30
2015,08,22,09,18,19.30
2015,08,22,09,19,19.30
2015,08,22,09,20,19.30
2015,08,22,09,21,19.30
2015,08,22,09,22,19.30
2015,08,22,09,23,19.40
2015,08,22,09,24,19.40
2015,08,22,09,25,19.50
2015,08,22,09,26,19.60
2015,08,22,09,27,19.60
2015,08,22,09,28,19.70
2015,08,22,09,29,19.70
2015,08,22,09,30,19.70
2015,08,22,09,31,19.70
2015,08,22,09,32,19.70
2015,08,22,09,33,19.70
2015,08,22,09,34,19.70
2015,08,22,09,35,19.80
2015,08,22,09,36,19.90
2015,08,22,09,37,19.90
2015,08,22,09,38,20.00
2015,08,22,09,39,20.10
2015,08,22,09,40,20.10
2015,08,22,09,41,20.10
2015,08,22,09,42,20.10
2015,08,22,09,43,20.10
2015,08,22,09,44,20.20
2015,08,22,09,45,20.20
2015,08,22,09,46,20.20
2015,08,22,09,47,20.20
2015,08,22,09,48,20.20
2015,08,22,09,49,20.10
2015,08,22,09,50,20.20
2015,08,22,09,51,20.20
2015,08,22,09,52,20.20
2015,08,22,09,53,20.20
2015,08,22,09,54,20.30
2015,08,22,09,55,20.30
2015,08,22,09,56,20.40
2015,08,22,09,57,20.50
2015,08,22,09,58,20.50
2015,08,22,09,59,20.60
2015,08,22,10,00,20.50
2015,08,22,10,01,20.40
2015,08,22,10,02,20.40
2015,08,22,10,03,20.40
2015,08,22,10,04,20.30
2015,08,22,10,05,20.30
2015,08,22,10,06,20.30
2015,08,22,10,07,20.40
2015,08,22,10,08,20.40
2015,08,22,10,09,20.40
2015,08,22,10,10,20.40
2015,08,22,10,11,20.40
2015,08,22,10,12,20.50
2015,08,22,10,13,20.60
2015,08,22,10,14,20.60
2015,08,22,10,15,20.60
2015,08,22,10,16,20.60
2015,08,22,10,17,20.70
2015,08,22,10,18,20.80
2015,08,22,10,19,21.00
2015,08,22,10,20,21.10
2015,08,22,10,21,21.10
2015,08,22,10,22,21.10
2015,08,22,10,23,21.10
2015,08,22,10,24,21.10
2015,08,22,10,25,21.10
2015,08,22,10,26,21.10
2015,08,22,10,27,21.20
2015,08,22,10,28,21.20
2015,08,22,10,29,21.30
2015,08,22,10,30,21.30
2015,08,22,10,31,21.10
2015,08,22,10,32,21.10
2015,08,22,10,33,21.10
2015,08,22,10,34,21.10
2015,08,22,10,35,21.20
2015,08,22,10,36,21.40
2015,08,22,10,37,21.50
2015,08,22,10,38,21.70
2015,08,22,10,39,21.80
2015,08,22,10,40,21.70
2015,08,22,10,41,21.50
2015,08,22,10,42,21.50
2015,08,22,10,43,21.40
2015,08,22,10,44,21.40
2015,08,22,10,45,21.50
2015,08,22,10,46,21.50
2015,08,22,10,47,21.40
2015,08,22,10,48,21.40
2015,08,22,10,49,21.40
2015,08,22,10,50,21.40
2015,08,22,10,51,21.50
2015,08,22,10,52,21.60
2015,08,22,10,53,21.80
2015,08,22,10,54,21.80
2015,08,22,10,55,21.80
2015,08,22,10,56,21.80
2015,08,22,10,57,21.70
2015,08,22,10,58,21.70
2015,08,22,10,59,21.80
2015,08,22,11,00,21.80
2015,08,22,11,01,21.70
2015,08,22,11,02,21.70
2015,08,22,11,03,21.80
2015,08,22,11,04,21.90
2015,08,22,11,05,22.00
2015,08,22,11,06,22.00
2015,08,22,11,07,22.00
2015,08,22,11,08,22.10
2015,08,22,11,09,22.10
2015,08,22,11,10,22.20
2015,08,22,11,11,22.30
2015,08,22,11,12,22.40
2015,08,22,11,13,22.40
2015,08,22,11,14,22.40
2015,08,22,11,15,22.20
2015,08,22,11,16,22.00
2015,08,22,11,17,22.00
2015,08,22,11,18,22.10
2015,08,22,11,19,22.10
2015,08,22,11,20,22.20
2015,08,22,11,21,22.30
2015,08,22,11,22,22.40
2015,08,22,11,23,22.40
2015,08,22,11,24,22.40
2015,08,22,11,25,22.30
2015,08,22,11,26,22.20
2015,08,22,11,27,22.20
2015,08,22,11,28,22.20
2015,08,22,11,29,22.20
2015,08,22,11,30,22.20
2015,08,22,11,31,22.20
2015,08,22,11,32,22.20
2015,08,22,11,33,22.10
2015,08,22,11,34,22.10
2015,08,22,11,35,22.10
2015,08,22,11,36,22.20
2015,08,22,11,37,22.30
2015,08,22,11,38,22.40
2015,08,22,11,39,22.40
2015,08,22,11,40,22.50
2015,08,22,11,41,22.50
2015,08,22,11,42,22.50
2015,08,22,11,43,22.30
2015,08,22,11,44,22.20
2015,08,22,11,45,22.20
2015,08,22,11,46,22.20
2015,08,22,11,47,22.30
2015,08,22,11,48,22.40
2015,08,22,11,49,22.60
2015,08,22,11,50,22.80
2015,08,22,11,51,22.90
2015,08,22,11,52,23.00
2015,08,22,11,53,23.10
2015,08,22,11,54,23.20
2015,08,22,11,55,23.20
2015,08,22,11,56,23.30
2015,08,22,11,57,23.30
2015,08,22,11,58,23.30
2015,08,22,11,59,23.20
2015,08,22,12,00,23.20
2015,08,22,12,01,23.20
2015,08,22,12,02,23.30
2015,08,22,12,03,23.30
2015,08,22,12,04,23.30
2015,08,22,12,05,23.30
2015,08,22,12,06,23.10
2015,08,22,12,07,23.10
2015,08,22,12,08,23.10
2015,08,22,12,09,23.10
2015,08,22,12,10,23.10
2015,08,22,12,11,23.20
2015,08,22,12,12,23.30
2015,08,22,12,13,23.50
2015,08,22,12,14,23.60
2015,08,22,12,15,23.60
2015,08,22,12,16,23.70
2015,08,22,12,17,23.70
2015,08,22,12,18,23.70
2015,08,22,12,19,23.70
2015,08,22,12,20,23.80
2015,08,22,12,21,23.80
2015,08,22,12,22,23.80
2015,08,22,12,23,23.80
2015,08,22,12,24,23.90
2015,08,22,12,25,23.90
2015,08,22,12,26,23.80
2015,08,22,12,27,23.60
2015,08,22,12,28,23.50
2015,08,22,12,29,23.40
2015,08,22,12,30,23.30
2015,08,22,12,31,23.30
2015,08,22,12,32,23.40
2015,08,22,12,33,23.40
2015,08,22,12,34,23.40
2015,08,22,12,35,23.40
2015,08,22,12,36,23.30
2015,08,22,12,37,23.20
2015,08,22,12,38,22.90
2015,08,22,12,39,22.80
2015,08,22,12,40,22.80
2015,08,22,12,41,22.90
2015,08,22,12,42,22.90
2015,08,22,12,43,23.10
2015,08,22,12,44,23.30
2015,08,22,12,45,23.30
2015,08,22,12,46,23.20
2015,08,22,12,47,23.20
2015,08,22,12,48,23.20
2015,08,22,12,49,23.10
2015,08,22,12,50,23.00
2015,08,22,12,51,23.10
2015,08,22,12,52,23.20
2015,08,22,12,53,23.40
2015,08,22,12,54,23.60
2015,08,22,12,55,23.50
2015,08,22,12,56,23.40
2015,08,22,12,57,23.40
2015,08,22,12,58,23.40
2015,08,22,12,59,23.30
2015,08,22,13,00,23.20
2015,08,22,13,01,23.20
2015,08,22,13,02,23.30
2015,08,22,13,03,23.50
2015,08,22,13,04,23.60
2015,08,22,13,05,23.80
2015,08,22,13,06,24.00
2015,08,22,13,07,24.10
2015,08,22,13,08,24.20
2015,08,22,13,09,24.00
2015,08,22,13,10,23.80
2015,08,22,13,11,23.70
2015,08,22,13,12,23.60
2015,08,22,13,13,23.50
2015,08,22,13,14,23.40
2015,08,22,13,15,23.30
2015,08,22,13,16,23.30
2015,08,22,13,17,23.20
2015,08,22,13,18,23.00
2015,08,22,13,19,22.90
2015,08,22,13,20,22.90
2015,08,22,13,21,23.00
2015,08,22,13,22,23.20
2015,08,22,13,23,23.40
2015,08,22,13,24,23.60
2015,08,22,13,25,23.80
2015,08,22,13,26,24.00
2015,08,22,13,27,24.20
2015,08,22,13,28,24.30
2015,08,22,13,29,24.40
2015,08,22,13,30,24.40
2015,08,22,13,31,24.40
2015,08,22,13,32,24.30
2015,08,22,13,33,24.20
2015,08,22,13,34,24.00
2015,08,22,13,35,23.70
2015,08,22,13,36,23.50
2015,08,22,13,37,23.50
2015,08,22,13,38,23.40
2015,08,22,13,39,23.50
2015,08,22,13,40,23.60
2015,08,22,13,41,23.70
2015,08,22,13,42,23.70
2015,08,22,13,43,23.70
2015,08,22,13,44,23.80
2015,08,22,13,45,23.80
2015,08,22,13,46,23.90
2015,08,22,13,47,24.00
2015,08,22,13,48,24.00
2015,08,22,13,49,24.10
2015,08,22,13,50,24.10
2015,08,22,13,51,24.20
2015,08,22,13,52,24.30
2015,08,22,13,53,24.20
2015,08,22,13,54,24.20
2015,08,22,13,55,24.30
2015,08,22,13,56,24.20
2015,08,22,13,57,24.30
2015,08,22,13,58,24.30
2015,08,22,13,59,24.30
2015,08,22,14,00,24.20
2015,08,22,14,01,24.20
2015,08,22,14,02,24.20
2015,08,22,14,03,24.20
2015,08,22,14,04,24.10
2015,08,22,14,05,24.00
2015,08,22,14,06,23.70
2015,08,22,14,07,23.40
2015,08,22,14,08,23.10
2015,08,22,14,09,22.90
2015,08,22,14,10,22.90
2015,08,22,14,11,23.00
2015,08,22,14,12,23.10
2015,08,22,14,13,23.20
2015,08,22,14,14,23.30
2015,08,22,14,15,23.30
2015,08,22,14,16,23.50
2015,08,22,14,17,23.60
2015,08,22,14,18,23.60
2015,08,22,14,19,23.70
2015,08,22,14,20,23.80
2015,08,22,14,21,23.90
2015,08,22,14,22,23.90
2015,08,22,14,23,24.00
2015,08,22,14,24,24.10
2015,08,22,14,25,24.00
2015,08,22,14,26,23.90
2015,08,22,14,27,24.00
2015,08,22,14,28,24.00
2015,08,22,14,29,23.90
2015,08,22,14,30,24.00
2015,08,22,14,31,24.00
2015,08,22,14,32,24.00
2015,08,22,14,33,24.10
2015,08,22,14,34,24.10
2015,08,22,14,35,24.10
2015,08,22,14,36,24.10
2015,08,22,14,37,24.10
2015,08,22,14,38,24.10
2015,08,22,14,39,24.10
2015,08,22,14,40,24.20
2015,08,22,14,41,24.30
2015,08,22,14,42,24.40
2015,08,22,14,43,24.30
2015,08,22,14,44,24.30
2015,08,22,14,45,24.20
2015,08,22,14,46,24.20
2015,08,22,14,47,24.20
2015,08,22,14,48,24.20
2015,08,22,14,49,24.20
2015,08,22,14,50,24.30
2015,08,22,14,51,24.30
2015,08,22,14,52,24.40
2015,08,22,14,53,24.30
2015,08,22,14,54,24.20
2015,08,22,14,55,24.20
2015,08,22,14,56,24.30
2015,08,22,14,57,24.40
2015,08,22,14,58,24.60
2015,08,22,14,59,24.80
2015,08,22,15,00,24.90
2015,08,22,15,01,25.10
2015,08,22,15,02,25.20
2015,08,22,15,03,25.20
2015,08,22,15,04,25.20
2015,08,22,15,05,25.20
2015,08,22,15,06,25.30
2015,08,22,15,07,25.20
2015,08,22,15,08,25.10
2015,08,22,15,09,25.10
2015,08,22,15,10,25.20
2015,08,22,15,11,25.20
2015,08,22,15,12,25.30
2015,08,22,15,13,25.40
2015,08,22,15,14,25.50
2015,08,22,15,15,25.60
2015,08,22,15,16,25.70
2015,08,22,15,17,25.70
2015,08,22,15,18,25.70
2015,08,22,15,19,25.60
2015,08,22,15,20,25.40
2015,08,22,15,21,25.20
2015,08,22,15,22,24.90
2015,08,22,15,23,24.70
2015,08,22,15,24,24.80
2015,08,22,15,25,24.90
2015,08,22,15,26,25.00
2015,08,22,15,27,25.10
2015,08,22,15,28,25.20
2015,08,22,15,29,25.20
2015,08,22,15,30,25.30
2015,08,22,15,31,25.30
2015,08,22,15,32,25.40
2015,08,22,15,33,25.40
2015,08,22,15,34,25.40
2015,08,22,15,35,25.40
2015,08,22,15,36,25.30
2015,08,22,15,37,25.30
2015,08,22,15,38,25.30
2015,08,22,15,39,25.20
2015,08,22,15,40,25.00
2015,08,22,15,41,25.00
2015,08,22,15,42,25.00
2015,08,22,15,43,25.00
2015,08,22,15,44,25.00
2015,08,22,15,45,25.10
2015,08,22,15,46,25.20
2015,08,22,15,47,25.30
2015,08,22,15,48,25.40
2015,08,22,15,49,25.50
2015,08,22,15,50,25.60
2015,08,22,15,51,25.50
2015,08,22,15,52,25.40
2015,08,22,15,53,25.20
2015,08,22,15,54,25.10
2015,08,22,15,55,25.10
2015,08,22,15,56,25.20
2015,08,22,15,57,25.30
2015,08,22,15,58,25.30
2015,08,22,15,59,25.30
2015,08,22,16,00,25.30
2015,08,22,16,01,25.20
2015,08,22,16,02,25.30
2015,08,22,16,03,25.30
2015,08,22,16,04,25.20
2015,08,22,16,05,25.10
2015,08,22,16,06,25.00
2015,08,22,16,07,25.00
2015,08,22,16,08,25.10
2015,08,22,16,09,25.10
2015,08,22,16,10,25.10
2015,08,22,16,11,25.10
2015,08,22,16,12,25.20
2015,08,22,16,13,25.30
2015,08,22,16,14,25.30
2015,08,22,16,15,25.30
2015,08,22,16,16,25.30
2015,08,22,16,17,25.30
2015,08,22,16,18,25.30
2015,08,22,16,19,25.30
2015,08,22,16,20,25.30
2015,08,22,16,21,25.40
2015,08,22,16,22,25.40
2015,08,22,16,23,25.50
2015,08,22,16,24,25.60
2015,08,22,16,25,25.60
2015,08,22,16,26,25.70
2015,08,22,16,27,26.00
2015,08,22,16,28,26.10
2015,08,22,16,29,26.00
2015,08,22,16,30,26.00
2015,08,22,16,31,26.00
2015,08,22,16,32,26.00
2015,08,22,16,33,26.00
2015,08,22,16,34,26.20
2015,08,22,16,35,26.30
2015,08,22,16,36,26.30
2015,08,22,16,37,26.30
2015,08,22,16,38,26.30
2015,08,22,16,39,26.20
2015,08,22,16,40,26.10
2015,08,22,16,41,25.90
2015,08,22,16,42,25.90
2015,08,22,16,43,25.90
2015,08,22,16,44,26.00
2015,08,22,16,45,26.20
2015,08,22,16,46,26.10
2015,08,22,16,47,26.00
2015,08,22,16,48,26.00
2015,08,22,16,49,26.00
2015,08,22,16,50,26.10
2015,08,22,16,51,26.20
2015,08,22,16,52,26.30
2015,08,22,16,53,26.50
2015,08,22,16,54,26.60
2015,08,22,16,55,26.60
2015,08,22,16,56,26.60
2015,08,22,16,57,26.50
2015,08,22,16,58,26.50
2015,08,22,16,59,26.50
2015,08,22,17,00,26.40
2015,08,22,17,01,26.40
2015,08,22,17,02,26.40
2015,08,22,17,03,26.30
2015,08,22,17,04,26.30
2015,08,22,17,05,26.30
2015,08,22,17,06,26.30
2015,08,22,17,07,26.30
2015,08,22,17,08,26.20
2015,08,22,17,09,26.10
2015,08,22,17,10,26.10
2015,08,22,17,11,26.20
2015,08,22,17,12,26.30
2015,08,22,17,13,26.40
2015,08,22,17,14,26.60
2015,08,22,17,15,26.90
2015,08,22,17,16,26.80
2015,08,22,17,17,26.70
2015,08,22,17,18,26.50
2015,08,22,17,19,26.40
2015,08,22,17,20,26.30
2015,08,22,17,21,26.30
2015,08,22,17,22,26.30
2015,08,22,17,23,26.40
2015,08,22,17,24,26.50
2015,08,22,17,25,26.60
2015,08,22,17,26,26.60
2015,08,22,17,27,26.50
2015,08,22,17,28,26.40
2015,08,22,17,29,26.30
2015,08,22,17,30,26.40